AEA1013 LEMD-EGKK

Flight info

Callsign AEA1013
Flight time 1h 47m
Altitude 34000
Route SIE N865 DELOG DCT DEGEX DCT OZNOH DCT JSY DCT REVTU UP88 VASUX
Aircraft B38M/M-SDE1FGHILORVWXY/HB1

Departure

Time 2026-05-06 07:31
Airport Adolfo Suárez Madrid–Barajas Airport (LEMD)

Arrival

Time 2026-05-06 09:18
Airport London Gatwick Airport (EGKK)
Time Latitude Longitude Altitude Speed Heading
2026-05-06 06:54 40.46498 -3.56799 1975 ft 0 kts 273°
2026-05-06 07:12 40.46498 -3.56792 1975 ft 4 kts 274°
2026-05-06 07:12 40.46494 -3.56757 1964 ft 4 kts 286°
2026-05-06 07:13 40.46483 -3.56728 1976 ft 4 kts 319°
2026-05-06 07:13 40.46467 -3.56719 1980 ft 0 kts
2026-05-06 07:21 40.46476 -3.56718 1980 ft 5 kts
2026-05-06 07:21 40.46554 -3.56712 1977 ft 16 kts
2026-05-06 07:21 40.46670 -3.56704 1976 ft 17 kts
2026-05-06 07:22 40.46790 -3.56695 1976 ft 16 kts 14°
2026-05-06 07:22 40.46809 -3.56656 1979 ft 4 kts 100°
2026-05-06 07:22 40.46803 -3.56608 1978 ft 6 kts 96°
2026-05-06 07:22 40.46801 -3.56543 1976 ft 8 kts 91°
2026-05-06 07:23 40.46818 -3.56473 1980 ft 9 kts 39°
2026-05-06 07:23 40.46879 -3.56456 1977 ft 10 kts
2026-05-06 07:23 40.46951 -3.56451 1979 ft 11 kts
2026-05-06 07:23 40.47026 -3.56456 1981 ft 11 kts 352°
2026-05-06 07:24 40.47099 -3.56481 1984 ft 12 kts 338°
2026-05-06 07:24 40.47196 -3.56555 1984 ft 21 kts 323°
2026-05-06 07:24 40.47317 -3.56678 1989 ft 22 kts 322°
2026-05-06 07:24 40.47436 -3.56799 1992 ft 21 kts 322°
2026-05-06 07:25 40.47550 -3.56916 1995 ft 20 kts 321°
2026-05-06 07:25 40.47659 -3.57027 1999 ft 20 kts 322°
2026-05-06 07:25 40.47766 -3.57137 2002 ft 19 kts 323°
2026-05-06 07:25 40.47868 -3.57238 2004 ft 18 kts 322°
2026-05-06 07:26 40.47877 -3.57248 2003 ft 18 kts 322°
2026-05-06 07:26 40.47935 -3.57307 2006 ft 18 kts 322°
2026-05-06 07:26 40.48039 -3.57414 2005 ft 20 kts 322°
2026-05-06 07:26 40.48158 -3.57535 2000 ft 23 kts 322°
2026-05-06 07:27 40.48292 -3.57670 1998 ft 26 kts 322°
2026-05-06 07:27 40.48446 -3.57814 1995 ft 28 kts 331°
2026-05-06 07:27 40.48616 -3.57921 2000 ft 26 kts 348°
2026-05-06 07:27 40.48795 -3.57927 1999 ft 23 kts 360°
2026-05-06 07:28 40.48962 -3.57927 2001 ft 24 kts 359°
2026-05-06 07:28 40.49133 -3.57929 2001 ft 23 kts
2026-05-06 07:28 40.49207 -3.57928 2000 ft 3 kts
2026-05-06 07:29 40.49242 -3.57902 1999 ft 10 kts 56°
2026-05-06 07:29 40.49244 -3.57794 1996 ft 16 kts 93°
2026-05-06 07:29 40.49244 -3.57674 1991 ft 12 kts 88°
2026-05-06 07:29 40.49270 -3.57554 1990 ft 16 kts 66°
2026-05-06 07:30 40.49282 -3.57456 1985 ft 1 kts 60°
2026-05-06 07:30 40.49290 -3.57452 1987 ft 2 kts 19°
2026-05-06 07:30 40.49328 -3.57451 1985 ft 10 kts 360°
2026-05-06 07:30 40.49575 -3.57453 1987 ft 75 kts 359°
2026-05-06 07:31 40.50373 -3.57459 1994 ft 149 kts 359°
2026-05-06 07:31 40.51600 -3.57458 2226 ft 191 kts
2026-05-06 07:31 40.52894 -3.57400 3406 ft 185 kts
2026-05-06 07:31 40.54184 -3.57386 4340 ft 192 kts 359°
2026-05-06 07:32 40.55601 -3.57432 4875 ft 217 kts 359°
2026-05-06 07:32 40.57157 -3.57476 5751 ft 223 kts 359°
2026-05-06 07:32 40.58707 -3.57511 6782 ft 226 kts 358°
2026-05-06 07:32 40.60284 -3.57249 7600 ft 232 kts 21°
2026-05-06 07:33 40.61753 -3.56365 8585 ft 234 kts 22°
2026-05-06 07:33 40.63272 -3.55523 9472 ft 238 kts 14°
2026-05-06 07:33 40.64912 -3.55326 10367 ft 238 kts 353°
2026-05-06 07:33 40.66560 -3.55714 11136 ft 242 kts 347°
2026-05-06 07:34 40.68242 -3.55937 11968 ft 245 kts
2026-05-06 07:34 40.69957 -3.55856 12778 ft 249 kts
2026-05-06 07:34 40.71701 -3.55818 13585 ft 252 kts 360°
2026-05-06 07:34 40.73456 -3.55798 14317 ft 255 kts 358°
2026-05-06 07:35 40.75276 -3.55963 14764 ft 271 kts 353°
2026-05-06 07:35 40.77186 -3.56187 15168 ft 286 kts 353°
2026-05-06 07:35 40.79209 -3.56416 15713 ft 296 kts 353°
2026-05-06 07:35 40.81269 -3.56644 16499 ft 297 kts 353°
2026-05-06 07:36 40.83345 -3.56871 17220 ft 301 kts 353°
2026-05-06 07:36 40.85444 -3.57101 17961 ft 304 kts 352°
2026-05-06 07:36 40.87568 -3.57332 18625 ft 307 kts 352°
2026-05-06 07:36 40.89715 -3.57566 19213 ft 312 kts 352°
2026-05-06 07:37 40.91923 -3.57817 19480 ft 328 kts 352°
2026-05-06 07:37 40.94262 -3.58083 19621 ft 347 kts 352°
2026-05-06 07:37 40.96732 -3.58364 19725 ft 365 kts 352°
2026-05-06 07:37 40.99311 -3.58657 19955 ft 379 kts 352°
2026-05-06 07:38 41.01955 -3.58959 20500 ft 382 kts 352°
2026-05-06 07:38 41.04615 -3.59264 21047 ft 386 kts 351°
2026-05-06 07:38 41.06390 -3.59465 21399 ft 388 kts 351°
2026-05-06 07:38 41.09982 -3.59876 22128 ft 393 kts 351°
2026-05-06 07:39 41.12722 -3.60189 22663 ft 397 kts 350°
2026-05-06 07:39 41.15491 -3.60499 23198 ft 401 kts 352°
2026-05-06 07:39 41.18302 -3.60569 23719 ft 406 kts 354°
2026-05-06 07:39 41.20187 -3.60605 24009 ft 408 kts 353°
2026-05-06 07:40 41.23034 -3.60670 24457 ft 410 kts 353°
2026-05-06 07:40 41.25903 -3.60740 24900 ft 413 kts 353°
2026-05-06 07:40 41.28794 -3.60812 25318 ft 416 kts 353°
2026-05-06 07:40 41.31694 -3.60886 25748 ft 418 kts 353°
2026-05-06 07:41 41.34593 -3.60959 26170 ft 421 kts 353°
2026-05-06 07:41 41.37570 -3.61035 26588 ft 424 kts 353°
2026-05-06 07:41 41.40486 -3.61109 26991 ft 426 kts 353°
2026-05-06 07:41 41.43502 -3.61186 27394 ft 429 kts 353°
2026-05-06 07:42 41.46493 -3.61262 27799 ft 431 kts 353°
2026-05-06 07:42 41.49498 -3.61336 28188 ft 434 kts 354°
2026-05-06 07:42 41.52529 -3.61335 28559 ft 437 kts 355°
2026-05-06 07:42 41.55540 -3.61330 28932 ft 439 kts 354°
2026-05-06 07:43 41.58608 -3.61331 29289 ft 442 kts 354°
2026-05-06 07:43 41.61690 -3.61332 29640 ft 444 kts 354°
2026-05-06 07:43 41.64792 -3.61335 29989 ft 447 kts 354°
2026-05-06 07:43 41.67910 -3.61337 30294 ft 449 kts 354°
2026-05-06 07:44 41.71040 -3.61338 30588 ft 451 kts 354°
2026-05-06 07:44 41.74187 -3.61340 30896 ft 453 kts 354°
2026-05-06 07:44 41.77346 -3.61342 31190 ft 455 kts 354°
2026-05-06 07:44 41.80519 -3.61345 31475 ft 457 kts 354°
2026-05-06 07:45 41.83705 -3.61347 31770 ft 458 kts 354°
2026-05-06 07:45 41.86893 -3.61349 32149 ft 458 kts 355°
2026-05-06 07:45 41.90074 -3.61351 32552 ft 457 kts 355°
2026-05-06 07:45 41.93258 -3.61353 32945 ft 456 kts 355°
2026-05-06 07:46 41.96428 -3.61355 33334 ft 455 kts 355°
2026-05-06 07:46 41.99592 -3.61357 33717 ft 455 kts 355°
2026-05-06 07:46 42.02757 -3.61448 33980 ft 454 kts 352°
2026-05-06 07:46 42.05903 -3.61672 34023 ft 452 kts 352°
2026-05-06 07:47 42.12144 -3.62068 34025 ft 451 kts 352°
2026-05-06 07:47 42.18422 -3.62454 34023 ft 451 kts 352°
2026-05-06 07:48 42.24699 -3.62839 34023 ft 451 kts 353°
2026-05-06 07:48 42.30974 -3.63225 34023 ft 451 kts 353°
2026-05-06 07:49 42.37223 -3.63872 34026 ft 446 kts 345°
2026-05-06 07:49 42.43333 -3.65160 34025 ft 448 kts 347°
2026-05-06 07:50 42.49543 -3.66368 34025 ft 448 kts 348°
2026-05-06 07:50 42.55669 -3.67548 34025 ft 447 kts 348°
2026-05-06 07:51 42.61827 -3.68735 34027 ft 446 kts 348°
2026-05-06 07:51 42.67965 -3.69906 34030 ft 445 kts 349°
2026-05-06 07:52 42.74109 -3.70940 34031 ft 444 kts 349°
2026-05-06 07:52 42.80228 -3.71983 34021 ft 443 kts 349°
2026-05-06 07:53 42.86348 -3.73030 34021 ft 443 kts 349°
2026-05-06 07:53 42.92465 -3.74079 34026 ft 442 kts 350°
2026-05-06 07:54 42.98564 -3.75127 34015 ft 442 kts 350°
2026-05-06 07:54 43.04672 -3.76178 34028 ft 442 kts 350°
2026-05-06 07:55 43.10774 -3.77231 34032 ft 442 kts 350°
2026-05-06 07:55 43.16887 -3.78287 34012 ft 442 kts 350°
2026-05-06 07:56 43.22998 -3.79346 34024 ft 443 kts 350°
2026-05-06 07:56 43.29078 -3.80401 34022 ft 443 kts 350°
2026-05-06 07:57 43.35198 -3.81465 34023 ft 444 kts 350°
2026-05-06 07:57 43.41339 -3.82534 34020 ft 444 kts 350°
2026-05-06 07:58 43.47475 -3.83605 34025 ft 444 kts 351°
2026-05-06 07:58 43.53611 -3.84679 34023 ft 443 kts 351°
2026-05-06 07:59 43.59720 -3.85751 34018 ft 441 kts 351°
2026-05-06 07:59 43.65745 -3.86809 34017 ft 438 kts 351°
2026-05-06 08:00 43.71787 -3.87873 34018 ft 437 kts 351°
2026-05-06 08:00 43.77825 -3.88937 33994 ft 437 kts 351°
2026-05-06 08:01 43.83862 -3.90004 34007 ft 437 kts 351°
2026-05-06 08:01 43.89892 -3.91072 34001 ft 437 kts 351°
2026-05-06 08:02 43.95931 -3.92144 34009 ft 438 kts 351°
2026-05-06 08:02 44.01948 -3.93214 33998 ft 439 kts 351°
2026-05-06 08:03 44.08021 -3.94296 34001 ft 440 kts 351°
2026-05-06 08:03 44.14098 -3.95381 34000 ft 440 kts 351°
2026-05-06 08:04 44.20185 -3.96470 33997 ft 441 kts 351°
2026-05-06 08:04 44.26282 -3.97562 33998 ft 442 kts 351°
2026-05-06 08:05 44.32352 -3.98550 33986 ft 443 kts 359°
2026-05-06 08:05 44.38467 -3.97417 33989 ft 444 kts
2026-05-06 08:06 44.44566 -3.96069 33993 ft 444 kts
2026-05-06 08:06 44.50657 -3.94674 33992 ft 443 kts
2026-05-06 08:07 44.56735 -3.93275 33997 ft 442 kts
2026-05-06 08:07 44.62800 -3.91875 33994 ft 441 kts
2026-05-06 08:08 44.68868 -3.90472 33995 ft 440 kts
2026-05-06 08:08 44.74867 -3.89082 33990 ft 439 kts
2026-05-06 08:09 44.80900 -3.87680 33992 ft 439 kts
2026-05-06 08:09 44.86921 -3.86279 33993 ft 438 kts
2026-05-06 08:10 44.92941 -3.84875 33992 ft 437 kts
2026-05-06 08:10 44.98907 -3.83481 33991 ft 437 kts
2026-05-06 08:11 45.04892 -3.82079 33989 ft 436 kts
2026-05-06 08:11 45.10873 -3.80675 33991 ft 435 kts
2026-05-06 08:12 45.16845 -3.79270 33985 ft 434 kts
2026-05-06 08:12 45.22801 -3.77866 33985 ft 434 kts
2026-05-06 08:13 45.28756 -3.76460 33987 ft 433 kts
2026-05-06 08:13 45.34700 -3.75053 33983 ft 432 kts
2026-05-06 08:14 45.40627 -3.73647 33985 ft 432 kts
2026-05-06 08:14 45.46559 -3.72236 33981 ft 432 kts
2026-05-06 08:15 45.52440 -3.70835 33979 ft 431 kts
2026-05-06 08:15 45.58368 -3.69420 33977 ft 431 kts
2026-05-06 08:16 45.64285 -3.68004 33977 ft 431 kts
2026-05-06 08:16 45.70195 -3.66587 33980 ft 431 kts
2026-05-06 08:17 45.76106 -3.65167 33975 ft 430 kts
2026-05-06 08:17 45.82010 -3.63745 33979 ft 430 kts
2026-05-06 08:18 45.87877 -3.62329 33975 ft 430 kts
2026-05-06 08:18 45.93782 -3.60901 33975 ft 430 kts
2026-05-06 08:19 45.99690 -3.59470 33976 ft 430 kts
2026-05-06 08:19 46.05595 -3.58036 33974 ft 430 kts
2026-05-06 08:20 46.11501 -3.56598 33972 ft 430 kts
2026-05-06 08:20 46.17361 -3.55168 33967 ft 430 kts
2026-05-06 08:21 46.23266 -3.53725 33966 ft 430 kts
2026-05-06 08:21 46.29165 -3.52279 33969 ft 430 kts
2026-05-06 08:22 46.35066 -3.50830 33971 ft 430 kts
2026-05-06 08:22 46.40972 -3.49377 33971 ft 430 kts
2026-05-06 08:23 46.46879 -3.47920 33969 ft 430 kts
2026-05-06 08:23 46.52743 -3.46471 33972 ft 430 kts
2026-05-06 08:24 46.58659 -3.45005 33972 ft 430 kts
2026-05-06 08:24 46.64564 -3.43539 33967 ft 430 kts
2026-05-06 08:25 46.70472 -3.42069 33974 ft 430 kts
2026-05-06 08:25 46.76387 -3.40594 33977 ft 431 kts
2026-05-06 08:26 46.82265 -3.39126 33971 ft 431 kts
2026-05-06 08:26 46.88180 -3.37644 33972 ft 431 kts
2026-05-06 08:27 46.94095 -3.36159 33973 ft 431 kts
2026-05-06 08:27 46.99020 -3.34920 33967 ft 432 kts
2026-05-06 08:28 47.04942 -3.33427 33975 ft 432 kts
2026-05-06 08:28 47.10870 -3.31930 33969 ft 432 kts
2026-05-06 08:29 47.16801 -3.30428 33971 ft 432 kts
2026-05-06 08:29 47.22738 -3.28921 33970 ft 433 kts
2026-05-06 08:30 47.28672 -3.27412 33969 ft 433 kts
2026-05-06 08:30 47.34614 -3.25897 33968 ft 433 kts
2026-05-06 08:31 47.40524 -3.24387 33966 ft 433 kts
2026-05-06 08:31 47.46471 -3.22865 33966 ft 434 kts
2026-05-06 08:32 47.52426 -3.21337 33967 ft 434 kts
2026-05-06 08:32 47.58376 -3.19807 33969 ft 434 kts
2026-05-06 08:33 47.64328 -3.18272 33965 ft 434 kts
2026-05-06 08:33 47.70298 -3.16730 33962 ft 435 kts
2026-05-06 08:34 47.78634 -3.11868 33973 ft 437 kts 28°
2026-05-06 08:35 47.83913 -3.07363 33962 ft 437 kts 29°
2026-05-06 08:35 47.89164 -3.02791 33952 ft 437 kts 30°
2026-05-06 08:36 47.94416 -2.98195 33952 ft 437 kts 30°
2026-05-06 08:36 47.99663 -2.93591 33955 ft 438 kts 30°
2026-05-06 08:37 48.04878 -2.89004 33962 ft 438 kts 30°
2026-05-06 08:37 48.10128 -2.84376 33967 ft 438 kts 30°
2026-05-06 08:38 48.15381 -2.79734 33964 ft 438 kts 30°
2026-05-06 08:38 48.20629 -2.75085 33965 ft 438 kts 30°
2026-05-06 08:39 48.25883 -2.70419 33964 ft 439 kts 30°
2026-05-06 08:39 48.31133 -2.65746 33966 ft 439 kts 30°
2026-05-06 08:40 48.36385 -2.61059 33974 ft 439 kts 30°
2026-05-06 08:40 48.41642 -2.56359 33965 ft 439 kts 30°
2026-05-06 08:41 48.46964 -2.51887 33962 ft 438 kts 21°
2026-05-06 08:41 48.52572 -2.48411 33963 ft 439 kts 22°
2026-05-06 08:42 48.58226 -2.44895 33968 ft 439 kts 22°
2026-05-06 08:42 48.63879 -2.41375 33970 ft 439 kts 22°
2026-05-06 08:43 48.69531 -2.37847 33966 ft 439 kts 22°
2026-05-06 08:43 48.75186 -2.34309 33969 ft 440 kts 22°
2026-05-06 08:44 48.80841 -2.30763 33962 ft 440 kts 22°
2026-05-06 08:44 48.86462 -2.27229 33967 ft 440 kts 22°
2026-05-06 08:45 48.92117 -2.23665 33967 ft 440 kts 22°
2026-05-06 08:45 48.97777 -2.20089 33970 ft 440 kts 22°
2026-05-06 08:46 49.03434 -2.16506 33969 ft 440 kts 22°
2026-05-06 08:46 49.09091 -2.12915 33968 ft 440 kts 22°
2026-05-06 08:47 49.14713 -2.09336 33975 ft 440 kts 22°
2026-05-06 08:47 49.20369 -2.05730 33960 ft 440 kts 22°
2026-05-06 08:48 49.25829 -2.01457 33961 ft 441 kts 28°
2026-05-06 08:48 49.31203 -1.96916 33962 ft 441 kts 28°
2026-05-06 08:49 49.36584 -1.92345 33966 ft 441 kts 28°
2026-05-06 08:49 49.41935 -1.87787 33964 ft 441 kts 28°
2026-05-06 08:50 49.47310 -1.83198 33964 ft 441 kts 28°
2026-05-06 08:50 49.52651 -1.78626 33972 ft 441 kts 28°
2026-05-06 08:51 49.58051 -1.73993 33968 ft 441 kts 28°
2026-05-06 08:51 49.63656 -1.70401 33957 ft 440 kts 19°
2026-05-06 08:52 49.69417 -1.67214 33964 ft 440 kts 19°
2026-05-06 08:52 49.72290 -1.65625 33815 ft 435 kts 19°
2026-05-06 08:52 49.75132 -1.64053 33177 ft 432 kts 19°
2026-05-06 08:52 49.77949 -1.62492 32682 ft 427 kts 19°
2026-05-06 08:53 49.80730 -1.60950 32167 ft 422 kts 18°
2026-05-06 08:53 49.83490 -1.59416 31630 ft 419 kts 18°
2026-05-06 08:53 49.86227 -1.57895 31097 ft 417 kts 18°
2026-05-06 08:53 49.88974 -1.56365 30551 ft 422 kts 18°
2026-05-06 08:54 49.91752 -1.54817 30006 ft 426 kts 18°
2026-05-06 08:54 49.94541 -1.53259 29380 ft 426 kts 18°
2026-05-06 08:54 49.97323 -1.51705 28846 ft 423 kts 18°
2026-05-06 08:54 50.00092 -1.50205 28305 ft 419 kts 15°
2026-05-06 08:55 50.02838 -1.48887 27707 ft 418 kts 15°
2026-05-06 08:55 50.05606 -1.47540 27222 ft 414 kts 15°
2026-05-06 08:55 50.08336 -1.46201 26721 ft 410 kts 15°
2026-05-06 08:55 50.11051 -1.44865 26214 ft 407 kts 15°
2026-05-06 08:56 50.13746 -1.43536 25711 ft 405 kts 16°
2026-05-06 08:56 50.16428 -1.42212 25209 ft 403 kts 15°
2026-05-06 08:56 50.19095 -1.40893 24716 ft 401 kts 15°
2026-05-06 08:56 50.21748 -1.39579 24232 ft 399 kts 15°
2026-05-06 08:57 50.24395 -1.38268 23750 ft 397 kts 15°
2026-05-06 08:57 50.27032 -1.36970 23147 ft 397 kts 15°
2026-05-06 08:57 50.29657 -1.35677 22655 ft 394 kts 15°
2026-05-06 08:57 50.32254 -1.34396 22209 ft 390 kts 15°
2026-05-06 08:58 50.34828 -1.33124 21763 ft 386 kts 15°
2026-05-06 08:58 50.37375 -1.31864 21320 ft 382 kts 15°
2026-05-06 08:58 50.39871 -1.30628 20890 ft 379 kts 15°
2026-05-06 08:58 50.42379 -1.29385 20460 ft 376 kts 15°
2026-05-06 08:59 50.44864 -1.28130 20011 ft 375 kts 18°
2026-05-06 08:59 50.47160 -1.26125 19381 ft 381 kts 37°
2026-05-06 08:59 50.49088 -1.23268 18960 ft 380 kts 42°
2026-05-06 08:59 50.50985 -1.20403 18535 ft 377 kts 42°
2026-05-06 09:00 50.52878 -1.17576 18113 ft 374 kts 41°
2026-05-06 09:00 50.54763 -1.14775 17667 ft 371 kts 41°
2026-05-06 09:00 50.56631 -1.12006 17255 ft 367 kts 41°
2026-05-06 09:00 50.58458 -1.09296 16862 ft 363 kts 41°
2026-05-06 09:01 50.60309 -1.06550 16471 ft 359 kts 41°
2026-05-06 09:01 50.62098 -1.03894 16087 ft 356 kts 41°
2026-05-06 09:01 50.63892 -1.01226 15708 ft 353 kts 41°
2026-05-06 09:01 50.65668 -0.98584 15318 ft 350 kts 41°
2026-05-06 09:02 50.67430 -0.95959 14936 ft 347 kts 41°
2026-05-06 09:02 50.69174 -0.93359 14561 ft 344 kts 41°
2026-05-06 09:02 50.70909 -0.90769 14180 ft 342 kts 41°
2026-05-06 09:02 50.72633 -0.88195 13810 ft 339 kts 42°
2026-05-06 09:03 50.74336 -0.85648 13490 ft 334 kts 42°
2026-05-06 09:03 50.75999 -0.83157 13345 ft 324 kts 41°
2026-05-06 09:03 50.77609 -0.80743 13195 ft 314 kts 41°
2026-05-06 09:03 50.79152 -0.78429 13083 ft 305 kts 41°
2026-05-06 09:04 50.80593 -0.75989 12915 ft 305 kts 56°
2026-05-06 09:04 50.81371 -0.72886 12661 ft 305 kts 77°
2026-05-06 09:04 50.81766 -0.69595 12474 ft 305 kts 77°
2026-05-06 09:04 50.82167 -0.66312 12265 ft 304 kts 77°
2026-05-06 09:05 50.82559 -0.63028 12061 ft 303 kts 77°
2026-05-06 09:05 50.82943 -0.59764 11859 ft 302 kts 77°
2026-05-06 09:05 50.83324 -0.56500 11659 ft 300 kts 77°
2026-05-06 09:05 50.83699 -0.53258 11462 ft 299 kts 77°
2026-05-06 09:06 50.84073 -0.50022 11254 ft 298 kts 77°
2026-05-06 09:06 50.84444 -0.46800 11058 ft 297 kts 77°
2026-05-06 09:06 50.84812 -0.43590 10836 ft 295 kts 77°
2026-05-06 09:06 50.85181 -0.40369 10295 ft 301 kts 77°
2026-05-06 09:07 50.85551 -0.37127 9885 ft 295 kts 77°
2026-05-06 09:07 50.85909 -0.33984 9466 ft 287 kts 77°
2026-05-06 09:07 50.86261 -0.30878 8937 ft 286 kts 77°
2026-05-06 09:07 50.86645 -0.27852 8530 ft 282 kts 70°
2026-05-06 09:08 50.87589 -0.25171 8194 ft 273 kts 43°
2026-05-06 09:08 50.89087 -0.23581 7926 ft 257 kts 16°
2026-05-06 09:08 50.90804 -0.23340 7730 ft 238 kts 347°
2026-05-06 09:08 50.92200 -0.24420 7595 ft 221 kts 317°
2026-05-06 09:09 50.93016 -0.26413 7356 ft 217 kts 294°
2026-05-06 09:09 50.93516 -0.28674 7048 ft 218 kts 291°
2026-05-06 09:09 50.93985 -0.30940 6829 ft 214 kts 291°
2026-05-06 09:09 50.94435 -0.33128 6781 ft 205 kts 291°
2026-05-06 09:10 50.94883 -0.35309 6742 ft 212 kts 291°
2026-05-06 09:10 50.95345 -0.37548 6705 ft 215 kts 291°
2026-05-06 09:10 50.95812 -0.39810 6654 ft 216 kts 291°
2026-05-06 09:10 50.96281 -0.42068 6621 ft 215 kts 291°
2026-05-06 09:11 50.96750 -0.44325 6602 ft 215 kts 291°
2026-05-06 09:11 50.97326 -0.46497 6591 ft 212 kts 308°
2026-05-06 09:11 50.98465 -0.47905 6581 ft 210 kts 336°
2026-05-06 09:11 50.99849 -0.48704 6592 ft 212 kts 341°
2026-05-06 09:12 51.01243 -0.49439 6487 ft 209 kts 341°
2026-05-06 09:12 51.02629 -0.50169 6152 ft 209 kts 341°
2026-05-06 09:12 51.03988 -0.50895 5812 ft 208 kts 341°
2026-05-06 09:12 51.05350 -0.51642 5475 ft 206 kts 341°
2026-05-06 09:13 51.06702 -0.52407 5137 ft 205 kts 341°
2026-05-06 09:13 51.08051 -0.53098 4798 ft 203 kts 352°
2026-05-06 09:13 51.09417 -0.52739 4474 ft 202 kts 25°
2026-05-06 09:13 51.10442 -0.51215 4170 ft 208 kts 56°
2026-05-06 09:14 51.10852 -0.48976 3914 ft 214 kts 79°
2026-05-06 09:14 51.11044 -0.46638 3622 ft 210 kts 76°
2026-05-06 09:14 51.11313 -0.44396 3320 ft 202 kts 73°
2026-05-06 09:14 51.11602 -0.42285 3031 ft 193 kts 73°
2026-05-06 09:15 51.11886 -0.40248 2756 ft 184 kts 73°
2026-05-06 09:15 51.12157 -0.38279 2514 ft 180 kts 73°
2026-05-06 09:15 51.12424 -0.36339 2255 ft 178 kts 73°
2026-05-06 09:15 51.12687 -0.34436 2007 ft 172 kts 73°
2026-05-06 09:16 51.12937 -0.32631 1803 ft 163 kts 73°
2026-05-06 09:16 51.13097 -0.31474 1645 ft 159 kts 73°
2026-05-06 09:16 51.13331 -0.29784 1394 ft 154 kts 72°
2026-05-06 09:16 51.13627 -0.27624 1149 ft 146 kts 73°
2026-05-06 09:17 51.13835 -0.26073 948 ft 142 kts 72°
2026-05-06 09:17 51.14032 -0.24534 718 ft 144 kts 73°
2026-05-06 09:17 51.14183 -0.23479 577 ft 146 kts 72°
2026-05-06 09:17 51.14414 -0.21873 380 ft 150 kts 73°
2026-05-06 09:18 51.14641 -0.20278 238 ft 145 kts 72°
2026-05-06 09:18 51.14829 -0.18931 219 ft 91 kts 77°
2026-05-06 09:18 51.14928 -0.18201 223 ft 51 kts 78°
2026-05-06 09:18 51.15028 -0.17855 215 ft 28 kts 53°
2026-05-06 09:19 51.15090 -0.17759 216 ft 2 kts 16°
2026-05-06 09:19 51.15105 -0.17758 212 ft 2 kts 358°
2026-05-06 09:19 51.15107 -0.17758 212 ft 0 kts 358°
2026-05-06 09:20 51.15111 -0.17758 212 ft 2 kts 358°
2026-05-06 09:21 51.15163 -0.17765 213 ft 11 kts 353°
2026-05-06 09:21 51.15210 -0.17775 216 ft 0 kts 353°
2026-05-06 09:22 51.15223 -0.17778 212 ft 5 kts 352°
2026-05-06 09:22 51.15259 -0.17750 212 ft 6 kts 72°
2026-05-06 09:22 51.15270 -0.17666 211 ft 9 kts 77°
2026-05-06 09:23 51.15286 -0.17549 211 ft 12 kts 77°
2026-05-06 09:23 51.15296 -0.17472 212 ft 5 kts 80°
2026-05-06 09:23 51.15305 -0.17403 222 ft 7 kts 64°
2026-05-06 09:23 51.15350 -0.17352 218 ft 8 kts 50°
2026-05-06 09:24 51.15374 -0.17259 211 ft 10 kts 72°
2026-05-06 09:24 51.15402 -0.17139 213 ft 13 kts 66°
2026-05-06 09:24 51.15424 -0.16994 213 ft 14 kts 77°
2026-05-06 09:24 51.15449 -0.16825 219 ft 17 kts 76°
2026-05-06 09:25 51.15445 -0.16698 215 ft 11 kts 90°
2026-05-06 09:25 51.15455 -0.16605 213 ft 7 kts 78°
2026-05-06 09:25 51.15465 -0.16547 220 ft 5 kts 64°
2026-05-06 09:25 51.15479 -0.16493 215 ft 5 kts 75°
2026-05-06 09:26 51.15483 -0.16464 211 ft 2 kts 78°
2026-05-06 09:26 51.15485 -0.16455 211 ft 1 kts 78°
2026-05-06 09:26 51.15486 -0.16446 211 ft 0 kts 78°
2026-05-06 09:26 51.15486 -0.16443 211 ft 0 kts 78°